Powrót do katalogu

COSMOS 2507

AktywnyNawigacjaPO
NORAD 40920·PAYLOAD·🇷🇺 Russia

Wystrzelony Sep 23, 2015 z Plesetsk Cosmodrome

Loading…

Następne Przeloty (najbliższe 24 godziny)

TLE

ŚwieżeSource: Space-Track

Epoka: Sep 14, 2026, 13:56 UTC

1 40920U 15050A   26257.58103672 -.00000079  00000-0 -64075-3 0  9993
2 40920  82.4960  23.9964 0010455 151.2982 208.8675 12.42928662497965

Śledź COSMOS 2507 w czasie rzeczywistym z AllMySat

Download on the App Store